Probability
10 6 6 10 10 10 10 6 3 6 6 6 6 6 3 3 6 10 13 10 10 13 13 13 3 3 3 3 6 6 6 0 0 0 0 0 3 0 0 0 0 0 0
6 6 6 6 6 3 0 0 0 3 6 3 3 3 3 3 10 10 6 3 6 6 6 6 0 0 3 3 3 3 3 3 0 0 0 0 0 0 0 0 0 0 0
3 6 6 3 0 0 0 0 0 0 0 0 0 0 0 0 3 3 3 0 3 6 6 3 0 0 3 3 3 0 0 0 0 0 0 0 0 0 0 0 0 0 0
0 0 0 0 0 3 0 3 0 0 0 0 0 0 0 0 3 3 3 3 0 0 0 3 0 0 3 0 0 0 0 0 0 0 0 0 0 0 0 0 0 0 0
0 0 0 0 0 0 0 0 0 0 0 0 0 0 0 0 3 3 0 0 0 0 0 0 0 0 0 0 0 0 0 0 0 0 0 0 0 0 0 0 0 0 0
0 0 0 0 0 0 0 0 0 0 0 0 0 0 0 0 0 0 0 0 0 0 0 0 0 0 0 0 0 0 0 0 0 0 0 0 0 0 0 0 0 0 0
0 0 0 0 0 0 0 0 0 0 0 0 0 0 0 0 0 0 0 0 0 0 0 0 0 0 0 0 0 0 0 0 0 0 0 0 0 0 0 0 0 0 0
0 0 0 0 0 0 0 0 0 3 0 0 0 0 0 0 0 0 0 0 0 0 0 0 0 0 0 0 0 0 0 0 0 0 0 0 0 0 0 0 0 0 0
0 0 0 0 0 0 0 0 0 3 0 0 0 0 0 0 0 0 0 0 0 0 0 0 0 0 0 0 0 0 0 0 0 0 0 0 0 0 0 0 0 0 0
0 0 0 0 0 0 0 0 0 3 0 0 0 0 0 0 0 0 0 0 0 0 0 0 0 0 0 0 0 0 0 0 0 0 0 0 0 0 0 0 0 0 0
0 0 0 0 0 0 0 0 0 0 0 0 0 0 0 0 0 0 0 0 0 0 0 0 0 0 0 0 0 0 0 0 0 0 0 0 0 0 0 0 0 0 0
0 0 0 0 0 0 0 0 0 0 0 0 0 0 0 0 0 0 0 0 0 0 0 0 0 0 0 0 0 0 0 0 0 0 0 0 0 0 0 0 0 0 0
0 0 0 0 0 0 0 0 0 0 0 0 0 0 0 0 0 0 0 0 0 0 0 0 0 0 0 0 0 0 0 0 0 0 0 0 0 0 0 0 0 0 0
0 0 0 0 0 0 0 0 0 0 0 0 0 0 0 0 0 0 0 0 0 0 0 0 0 0 0 0 0 0 0 0 0 0 0 0 0 0 0 0 0 0 0
0 0 0 0 0 0 0 0 0 0 0 0 0 0 0 0 0 0 0 0 0 0 0 0 0 0 0 0 0 0 0 0 0 0 0 0 0 0 0 0 0 0 0
0 0 0 0 0 0 0 0 0 0 0 0 0 0 0 0 0 0 0 0 0 0 0 0 0 0 0 0 0 0 0 0 0 0 0 0 0 0 0 0 0 0 0
0 3 0 0 0 0 0 0 0 0 0 0 0 0 0 0 0 0 0 0 0 0 0 0 0 0 0 0 0 0 0 0 0 0 0 0 0 0 0 0 0 0 0
0 0 0 0 0 0 0 0 0 0 0 0 0 0 0 0 0 0 0 0 0 0 0 0 0 0 0 0 0 0 0 0 0 0 0 0 0 0 0 0 0 0 0
0 0 0 0 0 0 0 0 0 0 0 0 0 0 0 0 0 0 0 0 0 0 0 0 0 0 0 0 0 0 0 0 0 0 0 0 0 0 0 0 0 0 0
0 0 0 0 0 0 0 0 0 0 0 0 0 0 0 0 0 0 0 0 0 0 0 0 0 0 0 0 0 0 0 0 0 0 0 0 0 0 0 0 0 0 0
0 0 0 0 0 0 0 0 0 0 0 0 0 0 0 0 0 0 0 0 0 0 0 0 0 0 0 0 0 0 0 0 0 0 0 0 0 0 0 0 0 0 0
0 0 0 0 0 0 0 0 0 0 0 0 0 0 0 0 0 0 0 0 0 0 0 0 0 0 0 0 0 0 0 0 0 0 0 0 0 0 0 0 0 0 0
0 0 0 0 0 0 0 0 0 0 0 0 0 0 0 0 0 0 0 0 0 0 0 0 0 0 0 0 0 0 0 0 0 0 0 0 0 0 0 0 0 0 0
0 0 0 0 0 0 0 0 0 0 0 0 0 0 0 0 0 0 0 0 0 0 0 0 0 0 0 0 0 0 0 0 0 0 0 0 0 0 0 0 0 0 0
0 0 0 0 0 0 0 0 0 0 0 0 0 0 0 0 0 0 0 0 0 0 0 0 0 0 0 0 0 0 0 0 0 0 0 0 0 0 0 0 0 0 0
0 0 0 0 0 0 0 0 0 0 0 0 0 0 0 0 0 0 0 0 0 0 0 0 0 0 0 0 0 0 0 0 0 0 0 0 0 0 0 0 0 0 0
Height
5795 5794 5793 5792 5791 5790 5789 5788 5788 5787 5786 5786 5785 5785 5784 5784 5784 5784 5784 5784 5785 5785 5786 5786 5787 5788 5788 5789 5789 5790 5790 5791 5791 5792 5792 5792 5792 5793 5793 5792 5792 5792 5792
5789 5788 5787 5785 5784 5783 5782 5781 5781 5780 5779 5778 5778 5777 5777 5776 5776 5776 5776 5776 5776 5777 5777 5778 5778 5779 5780 5781 5782 5782 5783 5784 5785 5785 5786 5786 5786 5787 5787 5786 5786 5786 5786
5782 5781 5780 5778 5777 5776 5775 5775 5774 5773 5772 5771 5770 5770 5769 5769 5769 5768 5768 5768 5768 5768 5769 5769 5770 5771 5772 5773 5774 5775 5776 5777 5778 5779 5780 5780 5781 5781 5781 5781 5780 5780 5780
5775 5773 5772 5771 5770 5769 5768 5767 5766 5766 5765 5764 5763 5763 5762 5762 5761 5761 5761 5760 5760 5760 5761 5762 5763 5764 5765 5766 5767 5769 5770 5771 5772 5773 5774 5775 5775 5775 5776 5776 5776 5775 5775
5767 5766 5765 5764 5763 5762 5761 5760 5759 5759 5758 5757 5757 5756 5756 5755 5755 5754 5754 5754 5754 5754 5754 5755 5755 5757 5758 5759 5761 5762 5763 5765 5766 5767 5768 5769 5770 5770 5771 5771 5771 5770 5770
5760 5759 5758 5757 5756 5755 5754 5753 5752 5752 5751 5751 5750 5750 5750 5749 5748 5748 5747 5747 5747 5747 5748 5748 5749 5750 5752 5753 5755 5756 5758 5759 5761 5762 5763 5764 5765 5766 5766 5766 5766 5766 5766
5753 5751 5750 5749 5749 5748 5747 5746 5746 5745 5745 5744 5744 5744 5744 5744 5743 5742 5742 5741 5741 5741 5741 5742 5743 5745 5746 5748 5750 5751 5753 5754 5756 5758 5759 5760 5761 5761 5762 5762 5762 5763 5763
5745 5744 5743 5742 5741 5741 5740 5739 5739 5739 5738 5738 5738 5738 5738 5738 5738 5737 5737 5737 5737 5737 5737 5738 5739 5741 5743 5744 5746 5748 5749 5751 5752 5754 5755 5756 5757 5758 5758 5759 5759 5760 5760
5739 5738 5737 5736 5735 5734 5733 5733 5733 5733 5733 5733 5733 5733 5733 5733 5733 5733 5733 5733 5733 5734 5735 5736 5737 5738 5740 5741 5743 5745 5746 5748 5749 5750 5752 5753 5753 5754 5755 5756 5757 5757 5758
5734 5733 5731 5730 5729 5728 5728 5728 5728 5728 5728 5728 5729 5729 5729 5729 5729 5729 5730 5730 5731 5732 5733 5734 5735 5736 5738 5739 5741 5742 5744 5746 5747 5748 5750 5751 5752 5753 5754 5755 5755 5756 5756
5729 5728 5726 5725 5725 5724 5724 5724 5724 5724 5724 5724 5725 5725 5725 5726 5726 5727 5727 5728 5729 5730 5732 5733 5734 5735 5736 5738 5740 5741 5743 5745 5746 5747 5748 5749 5750 5752 5752 5753 5754 5754 5755
5725 5724 5722 5722 5721 5720 5720 5720 5720 5721 5721 5721 5722 5722 5722 5723 5724 5725 5726 5727 5728 5729 5731 5732 5733 5734 5736 5738 5739 5741 5742 5744 5745 5747 5748 5749 5750 5751 5751 5752 5752 5753 5754
5722 5720 5719 5719 5718 5718 5718 5718 5718 5718 5718 5719 5719 5720 5720 5721 5723 5724 5725 5726 5727 5729 5730 5732 5733 5734 5736 5738 5739 5741 5743 5744 5745 5746 5747 5748 5749 5750 5751 5751 5752 5752 5753
5719 5718 5717 5716 5716 5716 5716 5716 5716 5717 5717 5717 5718 5719 5720 5721 5722 5723 5724 5726 5727 5729 5730 5732 5733 5735 5736 5738 5740 5741 5743 5744 5745 5747 5747 5748 5749 5750 5750 5751 5752 5752 5752
5718 5716 5716 5715 5715 5715 5715 5715 5715 5716 5716 5717 5717 5718 5720 5721 5722 5723 5725 5726 5728 5729 5731 5733 5734 5736 5738 5739 5741 5742 5744 5745 5746 5747 5748 5749 5750 5750 5751 5751 5752 5752 5752
5717 5716 5715 5715 5714 5714 5715 5715 5715 5716 5716 5717 5718 5718 5719 5721 5722 5723 5725 5727 5729 5730 5732 5734 5736 5737 5739 5740 5742 5744 5745 5746 5747 5748 5749 5749 5750 5751 5751 5752 5752 5752 5752
5717 5716 5715 5715 5715 5715 5715 5716 5716 5717 5717 5717 5718 5719 5720 5721 5723 5725 5726 5728 5730 5731 5733 5735 5737 5739 5741 5742 5744 5745 5746 5747 5748 5749 5750 5750 5751 5752 5752 5752 5752 5752 5752
5717 5717 5716 5716 5716 5716 5716 5717 5717 5718 5718 5719 5720 5721 5722 5723 5725 5726 5728 5730 5732 5733 5735 5737 5739 5741 5742 5744 5745 5746 5747 5748 5749 5750 5751 5751 5752 5752 5753 5753 5753 5752 5752
5719 5719 5718 5718 5718 5718 5718 5719 5719 5720 5720 5721 5722 5723 5725 5726 5727 5729 5730 5732 5734 5736 5738 5740 5741 5743 5744 5745 5746 5748 5749 5750 5750 5751 5752 5752 5753 5753 5753 5753 5752 5752 5751
5721 5721 5720 5720 5720 5720 5720 5721 5721 5722 5723 5724 5725 5726 5728 5729 5730 5732 5733 5735 5737 5739 5740 5742 5743 5745 5746 5747 5748 5749 5750 5751 5751 5752 5753 5753 5753 5753 5753 5753 5752 5751 5750
5724 5723 5723 5723 5723 5723 5723 5724 5724 5725 5726 5727 5728 5729 5731 5732 5734 5735 5736 5738 5740 5741 5743 5744 5745 5747 5748 5749 5750 5751 5751 5752 5752 5753 5753 5753 5753 5753 5752 5751 5750 5749 5748
5727 5726 5726 5726 5726 5726 5726 5726 5727 5728 5729 5730 5731 5732 5734 5735 5737 5738 5739 5741 5742 5744 5745 5746 5747 5748 5749 5750 5751 5752 5752 5753 5753 5753 5753 5753 5752 5752 5751 5750 5749 5747 5746
5731 5730 5730 5730 5729 5730 5730 5730 5730 5731 5732 5733 5735 5736 5737 5738 5740 5741 5742 5743 5745 5746 5747 5748 5749 5750 5751 5751 5752 5752 5753 5753 5753 5753 5752 5752 5751 5750 5749 5748 5746 5745 5743
5735 5734 5734 5734 5733 5733 5734 5734 5734 5735 5736 5737 5738 5739 5740 5742 5743 5744 5745 5746 5747 5748 5748 5749 5750 5751 5751 5752 5752 5752 5752 5752 5752 5752 5751 5750 5749 5748 5747 5745 5743 5741 5739
5739 5738 5738 5738 5737 5737 5737 5738 5738 5738 5739 5740 5741 5742 5743 5744 5745 5746 5746 5747 5748 5749 5750 5750 5751 5751 5751 5752 5752 5752 5752 5751 5751 5750 5749 5748 5747 5745 5744 5742 5740 5737 5735
5742 5742 5741 5741 5741 5741 5741 5741 5741 5741 5742 5742 5743 5744 5745 5745 5746 5747 5748 5748 5749 5750 5750 5750 5751 5751 5751 5751 5751 5750 5750 5749 5748 5747 5746 5745 5744 5742 5740 5737 5735 5732 5729
Wind_Speed
27 27 27 27 27 27 26 25 25 25 25 25 25 25 26 26 27 28 28 29 29 29 29 28 28 28 27 27 27 26 25 25 25 24 23 23 23 24 24 24 24 24 24
27 27 27 27 27 27 26 26 26 26 25 25 25 25 26 26 26 26 27 28 28 28 28 28 28 27 27 27 26 25 25 24 24 23 23 22 22 22 22 22 22 22 22
28 27 27 27 27 26 26 26 26 25 26 26 26 26 25 26 26 26 26 26 26 26 26 26 26 26 25 25 25 24 24 23 23 23 22 22 22 21 21 21 20 20 21
28 28 27 27 26 27 27 26 25 25 25 25 25 25 25 25 25 25 25 24 24 24 24 23 24 24 24 24 23 23 23 22 22 21 21 20 20 20 19 19 19 19 19
28 27 27 26 26 26 26 25 25 24 24 24 24 23 23 23 23 23 23 22 22 22 22 22 22 22 22 22 22 21 21 21 20 20 20 19 19 18 18 18 18 17 17
27 27 26 25 25 25 25 24 24 23 23 24 22 22 21 21 21 20 20 20 20 21 21 22 21 20 20 19 19 19 19 19 18 18 18 18 17 17 16 16 14 13 13
27 26 26 25 25 25 25 24 24 23 23 22 21 21 20 20 19 19 19 18 18 19 19 18 18 17 17 16 16 16 16 16 16 15 15 14 14 13 13 12 11 10 10
24 25 25 25 24 24 23 23 23 22 21 20 19 19 19 19 19 18 17 16 15 16 15 14 15 14 14 14 14 14 14 13 13 13 13 13 12 11 10 9 8 7 7
22 21 22 22 22 21 21 20 19 19 19 18 17 17 17 17 17 16 15 14 13 12 11 11 11 11 11 12 12 11 10 11 12 11 10 9 8 8 7 6 5 5 5
20 20 19 18 18 18 17 16 16 16 16 16 15 15 14 14 13 13 12 12 11 9 9 9 9 9 9 9 9 9 8 8 9 8 7 7 6 5 5 4 4 4 3
18 18 17 16 16 15 14 14 13 13 14 13 13 13 12 11 10 9 9 8 8 8 8 7 7 7 7 7 7 7 6 6 6 5 5 5 5 4 4 3 3 3 3
15 15 14 14 13 12 12 11 11 11 11 10 10 10 9 8 7 6 6 6 6 7 7 6 5 6 6 6 6 6 5 5 5 5 5 4 4 4 3 2 2 2 1
14 13 12 11 10 10 9 9 9 8 8 7 7 7 7 6 6 5 5 5 4 5 6 6 6 6 6 6 6 7 6 6 5 5 5 4 4 3 3 2 2 1 0
11 11 10 9 8 8 8 8 7 6 5 4 4 4 4 4 4 4 4 5 5 5 5 5 6 6 6 6 6 7 7 6 6 5 5 4 3 3 3 3 2 1 1
9 9 8 7 6 5 5 4 4 4 3 2 2 2 4 4 5 5 5 5 6 6 6 7 7 7 7 7 7 7 7 7 7 6 6 5 4 4 4 4 3 3 3
7 6 5 4 3 2 2 2 1 0 0 1 2 2 4 5 5 6 7 6 6 7 7 8 8 8 8 8 8 8 8 8 7 7 6 5 5 5 5 4 4 4 3
5 4 3 2 1 1 1 1 2 2 2 2 3 4 5 6 6 7 7 7 8 8 9 9 10 9 9 9 9 8 8 8 7 6 6 5 5 5 4 4 4 4 4
4 3 3 3 3 3 3 3 3 3 4 5 6 7 7 7 7 8 8 8 9 10 10 10 10 9 9 8 8 8 8 7 7 6 6 6 5 5 4 4 4 4 5
4 4 4 4 4 4 4 4 5 6 6 8 9 9 9 8 9 9 9 9 10 11 11 10 9 9 8 8 8 8 7 7 7 7 6 5 4 4 3 3 4 4 5
5 5 5 5 5 5 6 6 7 8 8 9 9 9 9 8 9 9 9 9 10 10 10 10 9 8 9 8 8 8 7 7 6 5 4 3 3 2 2 3 4 5 7
7 7 7 7 7 7 7 7 8 9 9 9 9 9 9 8 9 9 9 10 10 10 10 9 8 9 8 8 8 7 6 5 4 3 2 1 2 2 3 5 6 8 9
9 9 9 9 9 8 8 8 9 9 9 9 10 9 9 9 9 9 10 10 9 9 8 8 8 8 8 7 6 5 4 3 2 1 1 2 3 4 6 7 8 10 11
10 10 10 10 9 9 9 9 9 10 10 10 10 9 9 9 9 9 8 8 8 7 6 7 7 6 6 5 3 2 2 1 0 1 3 4 5 6 7 9 10 12 13
10 10 10 10 10 10 10 10 10 9 9 9 9 8 8 8 8 7 7 6 6 6 6 6 5 4 3 3 2 2 2 2 3 4 6 7 8 9 10 12 13 15 16
9 9 9 9 9 9 8 8 8 8 8 8 7 7 6 6 6 6 5 5 5 5 4 4 4 3 3 3 3 4 5 5 6 8 9 10 11 12 14 15 17 18 19
7 7 7 7 7 7 7 7 7 7 6 6 6 5 5 5 5 4 4 4 4 4 3 3 3 4 4 5 6 7 8 9 10 11 12 13 14 16 17 19 20 21 22
Wind_Direction
287 286 286 286 285 286 285 285 285 285 285 284 281 281 280 280 280 279 278 276 275 274 274 274 274 274 274 275 276 277 277 277 278 277 277 278 279 280 281 281 282 283 284
287 285 284 284 284 284 285 285 285 285 285 285 283 282 281 280 280 279 279 277 275 274 274 274 273 273 273 273 272 272 273 274 275 275 276 278 279 280 280 281 282 282 285
286 285 284 282 282 283 283 283 284 285 285 284 283 282 282 281 280 281 280 279 277 275 274 274 272 271 271 271 269 268 270 271 272 273 274 277 279 278 279 282 282 284 284
285 284 283 282 282 283 282 283 284 286 286 284 283 283 282 282 281 281 281 280 278 276 274 272 271 271 270 268 267 267 268 268 268 270 272 275 276 277 279 280 281 282 284
285 284 283 282 283 283 283 283 284 285 286 284 283 281 281 282 282 281 280 279 278 276 273 272 270 270 268 266 265 265 266 266 266 267 270 272 274 276 278 280 281 280 281
285 284 283 282 283 284 284 283 284 285 284 283 282 280 280 282 283 283 280 279 276 276 273 271 270 267 264 264 263 262 263 263 263 265 268 270 273 274 276 277 280 279 281
283 283 283 282 282 283 283 282 283 283 283 281 280 281 281 280 281 283 280 278 277 276 274 268 263 262 261 259 260 259 259 260 262 264 265 267 269 272 273 273 275 277 279
286 285 283 281 282 284 283 281 280 280 281 279 278 277 279 278 278 281 279 276 276 276 272 266 261 261 255 254 259 260 257 257 258 260 263 263 262 261 263 267 269 270 273
289 288 287 285 284 284 283 281 279 278 277 276 277 277 278 276 274 276 275 273 273 272 268 266 264 260 254 256 256 255 254 253 252 251 253 251 251 254 255 256 261 267 275
292 290 290 289 288 286 284 281 280 279 279 275 273 275 275 275 273 274 272 268 266 264 258 260 260 255 250 247 246 243 245 242 241 239 238 236 235 235 237 249 261 267 274
294 291 290 291 290 287 284 283 282 281 278 273 269 269 269 270 271 270 264 260 254 251 250 252 251 244 238 240 233 225 225 224 222 220 217 215 216 218 226 239 250 260 269
296 294 293 293 292 289 283 281 281 277 274 271 270 269 266 263 259 260 255 246 241 233 230 235 229 217 217 216 206 197 195 196 198 200 203 199 198 200 209 228 248 258 268
300 298 295 293 286 285 285 283 283 280 275 273 271 269 257 252 251 245 237 224 220 214 210 208 204 197 196 194 187 181 178 176 175 177 178 179 182 192 206 213 212 207 245
306 303 298 292 288 283 284 284 286 282 278 273 267 255 243 236 229 211 198 194 190 191 194 190 184 177 173 171 172 172 171 170 168 164 161 161 165 164 159 149 138 122 89
311 310 303 294 295 294 296 293 290 289 286 271 239 225 219 210 195 186 185 188 190 185 177 167 162 162 161 160 160 162 160 154 148 142 138 136 131 125 125 120 108 94 75
318 316 312 306 302 295 297 307 316 340 93 209 183 162 168 176 174 170 168 168 165 162 159 160 160 158 154 152 151 147 143 139 137 135 132 129 123 117 112 105 93 79 58
333 330 332 345 3 78 80 87 97 109 111 133 142 141 153 158 155 155 155 156 155 150 148 149 148 145 143 142 142 141 139 137 134 132 127 123 119 114 105 90 76 61 46
7 23 35 52 71 78 78 87 101 112 108 114 124 127 129 131 135 142 146 146 143 141 139 138 139 140 141 142 141 138 135 134 132 128 123 118 112 102 90 76 59 44 31
50 53 52 60 75 81 85 94 102 108 109 115 120 120 119 119 121 130 140 141 136 136 137 136 135 135 136 137 136 135 135 133 131 128 122 112 98 85 72 52 30 18 6
62 60 58 74 82 84 88 98 105 111 116 119 122 120 120 120 125 132 137 138 135 136 137 136 136 134 134 133 134 134 131 129 128 127 119 101 79 58 34 8 353 346 342
66 65 70 80 82 86 95 106 113 117 120 120 122 122 120 123 130 133 134 136 138 140 140 139 139 138 135 134 133 131 128 127 128 124 107 63 25 3 347 340 336 333 333
68 71 76 82 81 86 96 106 116 120 123 122 121 123 123 126 130 131 132 132 135 141 144 146 143 140 138 137 136 133 129 127 120 92 26 353 341 334 331 329 328 328 328
74 76 78 80 81 85 92 100 106 112 117 121 120 121 123 125 127 129 132 133 135 139 142 145 146 144 144 145 145 149 157 172 285 318 320 320 322 322 322 322 323 324 324
73 75 77 78 79 85 90 96 102 108 111 116 118 122 126 130 132 135 138 142 145 147 149 150 153 156 164 179 202 227 255 280 293 302 306 309 312 314 316 318 318 319 319
69 72 75 78 80 86 91 95 99 105 110 115 119 125 132 138 143 146 149 151 153 155 162 172 183 198 219 236 249 261 273 283 290 296 300 304 307 309 311 312 313 314 315
69 72 73 73 76 84 89 92 96 103 110 116 121 128 137 146 154 159 165 170 173 180 197 212 225 239 252 259 266 273 280 285 290 294 298 301 303 306 308 309 310 311 312